パンスターズ彗星

C/2012 F3 ( PanSTARRS )

English version
Home page
Updated on March 3, 2018

---------------------------------------------------------------------

・ プロフィール

発見日 2012年3月16日
発見光度 21.0等
発見者 Pan-STARRS 1 telescope (Haleakala)

・ 写真集

・ 軌道要素

Epoch 2015 Apr. 8.0 TT = JDT 2457120.5
T 2015 Apr. 6.67471 TT                                  MPCW
q   3.4569654            (2000.0)            P               Q
z  -0.0005295      Peri.  104.01957     -0.01881087     +0.99845751
 +/-0.0000002      Node   164.61383     -0.97640521     -0.00710359
e   1.0018305      Incl.   11.35471     -0.21512558     -0.05506490
From 1497 observations 2012 Jan. 19-2017 Oct. 17, mean residual 0".6.

・ 星図

・ 光度変化

        m1 = 6.5 + 5 logΔ + 9.0 log r(t + 40)

---------------------------------------------------------------------

軌道要素はM.P.E.C. 2017-X08に掲載されたものです。
星図はステラナビゲータ Ver.8 (アストロアーツ) で作成したものです。
光度グラフはComet for Windowsで作成したものです。

---------------------------------------------------------------------

Copyright(C) Seiichi Yoshida (comet@aerith.net). All rights reserved.